星链-32349 (STARLINK-32349)

导读 | 星芒AI

STARLINK-32349 是 SpaceX Starlink 卫星互联网项目中的第 32349 颗卫星。该卫星属于星链计划的低轨卫星群,旨在为全球用户提供高速互联网服务。它运行在近地轨道,配备先进通信设备,支持宽带数据传输。该计划致力于改善偏远地区网络覆盖,提升全球互联网接入能力。

基本信息
目录编号:
61700
目录名称:
STARLINK-32349
国际标识:
2024-195P
轨道中心:
EARTH
卫星名称:
星链-32349
卫星全名:
星链-32349 (STARLINK-32349)
卫星状态:
在轨 (已飞行416 天)
发射日期:
2024-10-30 UTC
国别 :
美国 (US)
星等 :
--
轨道信息
数据来源 国际轨道数据 AOE轨道数据
星历时间 2025-12-19T05:59:14+0800
1天前
查看轨道信息
2025-12-17T16:00:00+0800
3天前
查看轨道信息
半长轴 6853.35km 6853.382km
偏心率 0.0001001 0.0000186
轨道倾角 53.159° 53.157°
近地点辐角 75.367° 51.432°
升交点赤经 170.617° 177.973°
平近点角 284.744° 224.619°
近地点 474.528km 475.119km
远地点 475.902km 475.375km
周期 94.105分钟 94.106分钟
每日圈数 15.30201 15.301902
详细信息
固有亮度:
5
最大亮度:
2.5
卫星平台:
Starlink V1.0
覆盖范围:
全球
运营商:
太空探索技术公司
运营商所在国:
美国
制造商(研发单位):
太空探索技术公司
制造商所在国:
美国
使用方式:
暂无
卫星简介
Starlink 计划是 SpaceX 推出的全球卫星互联网项目,通过发射低轨道卫星,为全球尤其是偏远地区提供高速、低延迟的互联网服务。自 2019 年起,Starlink 已部署数千颗卫星,旨在缩小全球数字鸿沟,推动互联网普及。该项目还为军事、航空等行业提供通信支持,带来广泛经济效益。
2D轨道图
3D轨道图
轨道高度分析图
轨道倾角分析图
轨道综合分析图
查看轨道综合分析图